Theta_e
305 308 310 308 307 306 306 306 305 304 304 304 304 304 303 303 302 302 305 306 305 307 307 310 310 312 315 316 317 318 321 321 322 321 322 321 322 323 321 321 321 322 323 324 323
307 306 309 307 306 306 305 305 305 305 304 304 305 305 304 303 301 309 310 304 304 305 313 313 312 312 315 316 316 318 320 320 321 321 321 320 320 320 320 320 320 321 320 321 322
307 305 308 308 308 308 308 308 307 305 304 305 305 305 304 301 314 317 313 311 304 306 313 314 313 313 315 316 317 318 319 320 320 319 319 320 319 318 319 320 320 320 320 320 321
309 310 306 308 307 309 309 309 308 306 304 303 304 305 302 303 319 317 307 310 306 312 313 313 313 314 316 317 317 318 318 318 318 318 318 319 318 319 319 319 319 319 318 319 319
312 312 310 309 307 308 310 310 312 309 305 302 303 303 301 312 312 311 307 307 308 313 313 314 315 315 317 317 317 318 318 317 317 317 317 317 317 318 318 317 317 318 318 318 319
311 311 313 312 310 307 310 311 311 313 312 304 302 301 308 313 310 312 312 313 314 315 314 313 315 315 315 315 316 316 316 316 316 316 317 317 318 317 317 317 317 318 318 319 319
313 310 309 313 312 309 308 312 313 313 314 312 304 302 308 309 314 315 311 314 314 312 314 317 316 315 316 316 315 315 317 317 317 317 318 317 318 319 318 317 317 317 318 318 318
312 311 309 309 313 311 308 309 312 313 314 314 308 306 312 304 314 316 314 312 312 314 317 316 315 315 316 315 315 316 317 318 318 317 316 315 317 318 317 317 317 317 317 317 318
310 309 308 308 312 312 310 308 311 314 315 314 310 313 315 308 312 315 316 313 313 313 314 315 316 316 315 317 317 317 316 316 316 316 317 317 317 318 317 317 317 317 318 318 318
306 306 306 307 310 313 311 308 313 315 315 314 314 316 314 313 314 315 317 314 315 315 315 316 316 317 317 317 316 317 316 316 317 317 317 318 318 318 318 317 318 318 317 317 317
304 305 306 306 310 313 311 309 318 318 316 317 317 316 316 317 318 317 315 315 315 316 317 316 317 318 318 317 316 316 316 316 317 318 318 318 319 319 318 318 318 318 318 318 318
304 305 306 306 311 312 310 314 317 316 317 317 316 316 316 316 318 316 315 315 315 316 316 317 317 317 317 316 315 316 316 317 318 318 318 319 319 319 319 319 318 318 318 318 318
306 304 305 309 313 309 308 316 315 315 318 316 316 317 316 317 318 317 316 315 316 317 317 317 317 315 316 316 316 317 317 318 318 318 319 320 320 320 320 319 318 318 318 317 317
308 308 309 312 314 312 312 314 315 315 320 320 318 317 316 317 318 317 315 315 315 316 316 317 317 316 317 317 317 318 318 317 318 319 321 320 321 320 320 320 320 318 318 318 318
309 309 311 312 313 312 314 315 315 315 325 321 318 316 316 318 317 318 315 314 317 317 317 318 317 317 317 318 317 318 318 318 319 320 321 320 321 320 320 320 319 319 318 316 316
310 313 313 314 308 310 314 314 315 321 326 318 318 318 317 318 315 317 317 316 316 317 317 318 317 317 317 317 317 318 318 319 320 321 322 320 320 320 319 317 317 317 317 317 319
311 312 313 311 310 313 314 316 320 319 320 318 318 317 318 317 317 317 317 318 318 318 319 319 318 318 317 318 319 319 320 322 321 321 321 317 316 317 317 318 319 318 318 319 319
313 314 312 311 312 313 315 318 318 319 319 316 316 316 318 316 316 315 316 317 317 317 317 319 320 318 318 318 319 319 320 320 321 319 317 315 315 317 317 317 318 318 318 318 319
314 314 312 309 314 314 317 319 319 319 316 317 317 318 318 317 317 316 316 316 316 317 317 319 319 318 318 318 317 319 319 318 318 317 317 316 315 316 319 319 318 318 318 318 318
311 314 313 315 316 315 317 314 318 316 315 316 317 316 319 318 317 316 316 316 316 316 316 317 318 316 317 317 317 316 317 318 317 319 316 314 314 315 317 317 317 317 316 317 316
311 316 312 316 316 316 318 317 317 315 315 315 316 317 316 316 316 317 317 315 315 316 316 316 316 315 315 315 315 318 316 316 317 318 318 316 314 316 315 315 317 317 314 316 316
312 318 312 318 320 315 317 315 313 316 316 316 317 314 315 317 317 316 317 317 314 315 316 316 316 317 315 315 314 314 314 316 320 317 317 318 317 315 316 317 317 315 315 316 316
312 313 312 316 321 318 316 316 315 316 316 316 317 317 316 315 315 316 316 314 313 314 315 316 316 318 316 315 315 314 314 314 315 316 318 318 316 315 315 315 315 316 316 316 315
311 316 313 312 312 315 315 316 316 314 315 314 316 315 315 316 316 314 314 313 312 313 315 315 316 316 316 314 315 314 314 314 316 318 316 316 315 315 315 316 316 316 316 315 315
310 313 310 315 314 313 313 314 315 315 314 314 315 314 314 316 315 315 314 312 311 311 313 314 318 316 315 314 314 313 314 313 313 314 315 315 315 315 315 316 316 315 315 314 314
311 311 310 311 310 310 310 314 313 313 312 314 314 313 313 314 314 315 314 314 313 311 312 314 314 313 315 314 314 313 312 312 313 313 314 314 315 315 315 315 314 314 314 313 312
308 308 309 309 310 310 311 310 311 309 310 311 311 310 311 311 310 311 311 311 313 313 312 313 314 315 315 312 312 313 315 314 314 314 314 315 316 316 316 315 313 312 311 311 311
Wind_Speed
23 21 18 17 15 13 12 11 9 10 9 7 8 8 12 12 10 10 14 10 16 7 9 10 16 16 12 12 10 8 10 14 17 13 14 9 10 7 6 12 12 13 13 11 11
25 21 20 18 16 14 12 11 9 8 9 6 7 8 8 12 13 15 4 10 11 17 10 13 18 19 16 13 10 13 12 16 7 9 9 12 12 13 13 15 15 16 18 16 13
28 24 21 18 16 15 13 12 10 8 8 8 7 8 8 9 6 0 4 10 14 20 11 11 14 17 13 12 12 12 13 10 11 16 16 17 14 15 15 15 17 17 16 16 17
27 28 24 21 16 14 13 11 10 9 7 8 7 6 6 3 2 4 3 11 16 17 13 13 16 14 12 11 14 9 14 13 13 14 15 18 17 16 16 17 17 18 18 18 19
27 27 27 24 19 14 12 10 9 10 8 6 6 4 4 5 1 3 10 12 22 15 14 13 15 12 11 12 11 13 8 11 14 14 14 16 18 17 18 14 16 14 15 16 17
27 28 27 25 23 17 12 9 9 9 9 7 5 5 2 6 2 6 11 12 11 12 11 10 8 8 7 8 14 8 7 9 10 13 12 13 18 15 10 9 14 15 14 15 15
28 29 29 28 24 20 14 10 9 11 9 7 4 4 6 3 5 8 10 7 11 10 12 8 8 9 11 7 6 7 9 10 13 14 10 10 16 18 15 12 11 13 13 16 16
29 30 29 30 26 23 14 12 11 12 9 6 4 3 5 6 8 10 10 7 11 9 9 7 5 5 5 6 7 10 7 11 9 6 7 6 13 6 3 10 12 16 16 16 17
30 29 28 28 29 23 19 12 11 9 8 4 1 1 2 6 7 10 11 8 9 7 4 6 4 4 8 11 9 8 10 8 4 8 7 10 10 4 10 18 17 17 18 17 15
27 27 28 27 30 23 19 9 10 6 3 1 5 4 4 7 9 10 11 9 10 10 7 8 8 9 9 9 10 6 10 8 10 4 9 13 16 15 14 16 17 17 17 16 17
27 26 28 28 31 23 14 5 2 3 8 9 2 2 6 5 6 8 13 12 11 12 11 10 9 10 10 8 7 6 8 11 9 10 13 15 16 16 18 19 20 19 18 19 21
27 28 30 28 30 20 6 5 3 4 8 10 11 12 9 5 8 11 14 15 12 13 9 8 12 7 4 6 9 11 12 12 10 9 10 16 18 18 18 21 21 21 21 24 24
29 29 30 26 23 7 4 6 4 6 6 2 4 4 8 12 7 14 18 18 12 13 12 13 6 6 6 9 10 11 12 11 13 14 14 19 18 17 13 12 16 20 23 24 26
29 29 29 25 8 8 3 7 4 5 5 5 4 4 8 9 6 10 15 12 7 10 9 8 9 9 8 8 9 11 5 8 13 14 14 14 17 17 16 15 15 19 21 20 25
31 31 27 18 9 1 3 4 4 2 4 4 5 5 10 9 6 7 14 10 10 7 7 5 6 8 9 8 4 12 5 12 15 17 19 19 16 15 16 15 14 15 18 24 24
38 25 15 4 1 6 5 1 2 6 3 4 5 5 9 8 3 6 9 10 4 11 12 14 4 7 8 3 6 6 13 17 17 14 14 15 11 7 11 16 17 18 21 18 15
30 15 5 6 3 6 1 2 5 4 2 3 4 4 5 6 6 5 9 9 10 8 13 14 13 11 6 13 9 10 12 11 11 11 12 7 11 12 14 10 15 10 12 12 12
16 10 9 8 7 1 2 5 4 2 3 2 1 3 4 2 5 2 4 8 5 7 9 8 10 4 3 9 11 4 7 7 9 10 15 18 7 2 11 2 6 6 9 11 13
7 7 9 5 3 3 5 5 3 2 4 5 4 7 6 4 3 4 3 6 2 5 7 4 6 4 1 2 4 6 9 6 10 15 13 10 10 9 6 3 5 10 10 12 14
7 4 9 2 3 3 4 3 2 3 5 3 6 3 6 7 4 3 4 6 5 6 4 4 11 5 5 4 4 8 4 5 6 4 7 8 15 10 4 8 10 10 16 16 17
6 1 10 1 5 5 3 3 1 2 7 5 5 9 6 5 10 9 7 6 8 7 7 5 6 4 4 10 9 7 9 6 4 4 4 8 7 6 11 13 7 12 20 18 17
6 2 11 1 5 2 2 3 3 3 5 7 6 6 9 10 14 14 14 9 5 7 10 6 5 9 11 3 5 9 10 10 8 9 8 12 17 6 10 10 12 24 21 20 18
9 4 8 2 3 1 2 4 4 6 5 5 5 5 6 9 6 11 12 9 9 8 5 6 6 8 9 8 7 8 9 9 11 10 14 12 13 6 11 17 20 20 19 17 19
5 2 4 8 5 5 6 5 5 2 6 7 9 7 9 10 12 6 6 8 6 8 6 6 12 11 10 12 3 9 11 12 14 13 16 17 23 19 17 18 18 21 17 20 22
6 3 3 3 3 7 5 5 9 6 3 6 5 6 6 5 10 14 15 12 8 9 11 6 14 15 16 16 15 16 17 17 20 20 20 21 23 21 20 15 17 21 24 26 27
5 4 3 2 4 6 0 1 7 3 3 3 5 9 4 7 10 9 8 9 9 6 10 7 11 13 15 15 16 20 21 21 20 20 22 22 23 20 14 20 24 25 25 27 31
1 1 3 2 2 4 1 3 4 7 7 9 4 6 9 12 11 17 17 16 14 11 8 10 7 9 13 8 10 14 16 11 11 12 14 16 15 17 19 19 23 25 31 35 38
Wind_Direction
6 4 1 355 351 348 339 330 327 317 306 300 291 287 292 285 276 269 252 222 214 203 183 174 183 188 183 196 201 206 234 236 224 229 241 253 253 199 271 275 269 267 272 283 307
11 6 3 1 357 356 352 343 335 330 314 300 296 294 295 298 293 268 227 201 193 192 157 163 174 175 184 195 192 209 225 235 245 235 240 240 257 274 280 268 266 264 271 275 285
17 13 6 2 359 355 357 350 345 340 323 305 299 303 303 314 285 226 236 190 178 175 168 167 170 175 177 186 189 208 240 230 236 245 254 265 265 263 265 264 268 275 275 275 277
16 16 10 360 354 353 350 357 351 346 343 319 306 306 307 312 1 327 200 170 166 161 158 154 166 179 186 193 189 211 232 242 247 254 250 261 270 266 258 264 270 273 273 272 270
9 7 7 5 350 343 345 344 356 352 345 338 317 306 305 260 283 59 115 135 153 156 164 169 178 188 197 190 183 226 211 229 244 251 255 266 262 267 268 270 269 270 272 270 266
8 4 358 355 356 336 330 333 333 337 339 334 330 311 321 243 169 132 134 140 162 159 168 175 189 202 166 177 210 188 223 228 243 251 252 257 269 259 253 250 266 274 272 271 268
358 355 355 349 346 345 315 314 319 323 320 320 323 318 270 288 184 155 152 158 169 165 161 163 161 188 161 166 175 183 228 222 243 249 258 287 263 251 251 262 265 269 273 274 266
340 343 342 346 339 341 320 297 305 312 303 296 302 326 256 223 183 168 170 156 159 153 153 153 155 162 221 121 182 220 240 245 162 228 222 239 267 263 285 275 270 278 279 276 271
329 334 336 336 337 332 329 292 297 300 296 275 278 250 175 208 191 189 175 170 169 169 151 155 185 209 187 213 210 200 253 218 245 198 259 234 283 292 271 288 282 279 279 276 272
329 329 332 332 333 327 324 291 298 296 261 261 237 243 201 165 173 173 179 162 168 162 162 197 208 219 217 220 239 222 232 212 254 224 249 270 271 274 277 283 283 286 280 275 275
329 329 328 331 330 323 309 272 309 219 218 248 250 324 156 156 165 182 180 170 174 197 209 206 227 219 221 225 290 258 259 261 269 272 274 274 279 282 283 284 280 277 274 271 273
329 328 324 328 328 322 272 208 278 314 293 256 250 241 229 169 169 172 177 187 198 211 205 201 231 256 238 223 230 241 252 258 269 260 272 280 279 285 279 274 276 273 276 278 277
328 327 323 325 327 334 223 218 242 327 267 217 203 206 199 193 190 174 180 203 207 218 210 251 87 95 180 198 228 233 257 277 288 303 276 265 281 277 268 252 256 269 274 272 273
331 327 322 324 333 320 262 215 263 305 264 125 167 150 166 177 214 194 193 194 208 226 210 245 231 235 239 240 236 266 277 270 286 290 290 325 290 282 283 283 282 284 289 280 285
336 326 314 315 297 233 200 202 285 237 210 118 104 148 165 195 119 184 196 211 239 192 224 118 174 208 241 265 252 276 326 289 294 288 292 283 279 290 293 286 301 324 315 304 297
341 326 323 337 58 167 173 266 189 230 125 111 124 145 165 192 129 123 187 215 265 244 229 270 263 276 290 335 266 306 275 277 275 271 269 276 278 295 310 332 317 320 303 313 337
348 358 24 108 130 149 194 203 224 280 173 107 103 169 185 157 199 237 191 201 229 224 239 241 239 240 251 259 210 249 269 275 271 240 263 0 302 282 320 358 325 319 327 325 322
1 35 69 118 136 106 206 238 253 67 26 31 266 158 176 162 106 322 238 231 216 262 279 282 273 184 148 255 285 266 301 276 287 286 306 315 265 270 339 218 337 336 332 335 332
12 46 37 96 100 27 251 243 20 25 347 316 257 236 171 159 259 314 264 292 307 218 242 257 247 115 179 222 266 160 246 357 293 271 261 257 250 264 97 204 329 332 332 334 327
359 31 13 75 9 336 255 357 139 37 324 281 276 302 242 191 238 183 237 297 296 263 245 251 270 172 132 220 209 267 66 242 222 281 284 297 305 291 309 353 329 329 335 326 324
25 257 354 318 348 266 289 52 193 30 357 318 314 286 254 236 230 207 230 223 232 232 246 257 244 168 206 211 257 181 221 219 280 243 281 298 293 53 312 299 295 298 327 314 318
8 239 354 358 255 301 304 353 347 290 307 288 272 277 286 279 255 247 242 245 274 294 250 230 274 265 265 75 297 277 268 240 225 239 228 281 284 327 346 334 289 296 315 312 310
346 319 352 33 302 320 338 282 297 310 320 311 294 288 265 267 278 247 237 237 228 229 254 192 240 253 217 196 206 239 218 243 231 257 260 271 271 296 278 311 312 312 306 304 306
348 303 39 52 56 343 340 291 276 306 294 296 290 271 267 256 244 264 243 197 214 240 351 268 254 253 263 316 163 239 240 238 239 244 266 261 279 290 297 307 319 311 309 301 302
20 57 15 346 24 344 304 304 292 304 322 323 281 282 314 266 269 244 238 242 251 231 261 273 251 250 262 272 278 268 261 259 249 256 261 278 287 297 298 319 305 301 297 302 303
355 348 328 331 327 332 293 345 314 341 284 280 278 312 316 279 288 301 295 247 248 267 233 226 264 268 270 266 263 269 267 262 262 265 267 274 280 278 293 300 303 309 308 302 300
339 83 326 130 349 302 340 348 314 330 285 276 328 331 295 284 287 279 278 261 266 275 276 247 247 240 267 268 287 269 264 263 274 273 274 273 296 319 303 318 310 305 302 299 299